Weather History for Jackson, MI

Change the Weather History Date:

Wednesday, November 13, 2013

  Actual Average Record
Temperature  
Mean Temperature 28 °F 41 °F  
Max Temperature 38 °F 49 °F 70 °F (1989)
Min Temperature 17 °F 33 °F 8 °F (1986)
Degree Days  
Heating Degree Days 37 24  
Month to date heating degree days 321 283  
Since 1 July heating degree days 943 931  
Cooling Degree Days 0 0  
Month to date cooling degree days 0 0  
Year to date cooling degree days 616 592  
Moisture  
Dew Point 16 °F    
Average Humidity 62    
Maximum Humidity 92    
Minimum Humidity 32    
Precipitation  
Precipitation 0.00 in 0.09 in 1.38 in (1959)
Month to date precipitation 0.65 1.14  
Year to date precipitation 30.16 28.17  
Sea Level Pressure  
Sea Level Pressure 30.41 in    
Wind  
Wind Speed 11 mph (SW)    
Max Wind Speed 23 mph    
Max Gust Speed 32 mph    
Visibility 10 miles    
Events      
T = Trace of Precipitation, MM = Missing Value Source: NWS Daily Summary

Daily Weather History Graph

Daily Weather History Graph

Search for Another Location

Airport:

Trip Planner

Search our weather history database for the weather conditions in past years. The results will help you decide how hot, cold, wet, or windy it might be!

Date:

Astronomy

Nov. 13, 2013 Rise Set
Actual Time 7:26 AM EST 5:17 PM EST
Civil Twilight 6:56 AM EST 5:47 PM EST
Nautical Twilight 6:22 AM EST 6:21 PM EST
Astronomical Twilight 5:49 AM EST 6:54 PM EST
Moon 3:08 PM EST (11/13) 3:14 AM EST (11/13)
Length of Visible Light 10h 51m
Length of Day
9h 51m
Waxing Gibbous, 84% of the Moon is Illuminated
Nov 13
Waxing Gibbous
Nov 17
Full
Nov 25
Last Quarter
Dec 2
New
Dec 9
First Quarter

Hourly Weather History & Observations

Time (EST) Temp. Windchill Dew Point Humidity Pressure Visibility Wind Dir Wind Speed Gust Speed Precip Events Conditions
12:56 AM 18.0 °F 11.1 °F 15.1 °F 88% 30.56 in 10.0 mi SW 4.6 mph - N/A   Clear
1:56 AM 19.9 °F - 15.1 °F 81% 30.55 in 10.0 mi Calm Calm - N/A   Clear
2:56 AM 18.0 °F - 14.0 °F 84% 30.55 in 10.0 mi Calm Calm - N/A   Clear
3:56 AM 17.1 °F 10.0 °F 14.0 °F 88% 30.53 in 10.0 mi SW 4.6 mph - N/A   Clear
4:56 AM 21.0 °F 13.4 °F 18.0 °F 88% 30.53 in 10.0 mi SW 5.8 mph - N/A   Clear
5:56 AM 21.0 °F 12.4 °F 18.0 °F 88% 30.52 in 10.0 mi SW 6.9 mph - N/A   Clear
6:56 AM 21.9 °F 13.4 °F 18.0 °F 85% 30.51 in 10.0 mi WSW 6.9 mph - N/A   Clear
7:56 AM 23.0 °F 13.9 °F 19.0 °F 85% 30.52 in 10.0 mi SW 8.1 mph - N/A   Clear
8:56 AM 26.1 °F 17.6 °F 21.0 °F 81% 30.52 in 10.0 mi WSW 8.1 mph - N/A   Clear
9:56 AM 30.0 °F 20.5 °F 21.9 °F 72% 30.50 in 10.0 mi WSW 11.5 mph - N/A   Clear
10:56 AM 32.0 °F 23.6 °F 19.9 °F 61% 30.48 in 10.0 mi WSW 10.4 mph - N/A   Clear
11:56 AM 35.1 °F 25.9 °F 18.0 °F 50% 30.45 in 10.0 mi SW 13.8 mph 21.9 mph N/A   Clear
12:56 PM 37.0 °F 28.1 °F 15.1 °F 41% 30.42 in 10.0 mi WSW 15.0 mph 26.5 mph N/A   Clear
1:56 PM 37.9 °F 29.6 °F 12.0 °F 35% 30.40 in 10.0 mi WSW 13.8 mph 23.0 mph N/A   Clear
2:56 PM 37.9 °F 30.9 °F 10.9 °F 33% 30.37 in 10.0 mi SW 10.4 mph 20.7 mph N/A   Clear
3:56 PM 36.0 °F 26.7 °F 10.9 °F 36% 30.35 in 10.0 mi WSW 15.0 mph 24.2 mph N/A   Clear
4:56 PM 35.1 °F 27.4 °F 12.9 °F 40% 30.32 in 10.0 mi SW 10.4 mph - N/A   Clear
5:56 PM 34.0 °F 26.0 °F 14.0 °F 44% 30.31 in 10.0 mi SW 10.4 mph - N/A   Clear
6:56 PM 33.1 °F 23.9 °F 14.0 °F 46% 30.29 in 10.0 mi SSW 12.7 mph 19.6 mph N/A   Clear
7:56 PM 32.0 °F 21.2 °F 16.0 °F 52% 30.26 in 10.0 mi SSW 16.1 mph 24.2 mph N/A   Clear
8:56 PM 32.0 °F 20.5 °F 16.0 °F 52% 30.24 in 10.0 mi SW 18.4 mph 24.2 mph N/A   Clear
9:56 PM 32.0 °F 20.1 °F 16.0 °F 52% 30.22 in 10.0 mi SW 19.6 mph 28.8 mph N/A   Clear
10:56 PM 32.0 °F 20.5 °F 16.0 °F 52% 30.19 in 10.0 mi SW 18.4 mph 27.6 mph N/A   Clear
11:56 PM 30.9 °F 20.7 °F 16.0 °F 54% 30.19 in 10.0 mi WSW 13.8 mph 27.6 mph N/A   Clear